Vorticity
9 8 8 7 6 7 7 6 4 3 2 3 6 8 8 8 7 7 7 6 5 5 5 4 4 3 3 3 2 2 3 2 2 2 3 3 3 4 4 4 4 4 4 5 4 5 4 2 1 3 5 6 7 9 13 15 15 13 11 8 7 7 6 6 7 6 6 6 5 6 7 6 6 6 6 6 7 6 5 8 10 9 8 7 7
10 10 9 8 7 7 7 6 4 3 2 2 5 8 7 7 8 7 6 6 6 5 4 5 5 4 4 5 4 4 4 3 3 3 3 3 4 4 4 5 6 5 4 6 7 7 5 3 3 2 4 5 6 7 10 14 15 14 12 11 9 8 8 7 7 7 7 7 7 9 8 6 8 8 6 6 7 7 7 9 10 10 8 7 5
9 9 10 10 9 8 7 7 5 3 3 2 4 6 7 6 7 7 6 6 6 5 4 4 5 5 5 6 5 5 5 4 4 3 3 3 4 5 5 6 7 6 5 6 8 8 6 5 5 4 4 5 5 6 8 11 13 13 13 13 11 10 10 9 9 9 9 9 10 8 6 6 6 6 6 6 6 5 6 8 8 6 4 5 5
9 9 10 10 9 9 9 8 6 4 3 2 2 4 6 6 6 7 7 6 6 6 5 4 5 5 5 6 5 5 5 4 4 3 2 3 4 5 6 6 7 7 5 7 8 8 7 6 6 6 5 5 6 7 8 10 11 12 12 12 11 11 10 9 9 8 7 8 8 7 5 4 3 3 5 6 3 3 5 7 7 4 4 6 5
7 9 10 10 10 10 11 9 8 6 3 3 2 2 4 6 6 7 7 7 6 6 5 3 4 5 5 6 5 4 4 4 3 2 2 3 4 6 6 6 7 7 6 7 9 8 8 7 8 8 6 7 8 8 9 9 9 10 10 9 8 8 7 6 6 5 4 5 6 7 5 3 3 3 5 8 7 6 7 7 7 6 4 4 5
5 7 8 10 10 10 12 12 10 8 5 3 2 2 3 5 5 6 7 7 6 6 6 4 4 5 6 7 6 3 3 3 3 3 3 4 5 6 6 5 6 7 7 7 9 10 8 8 11 10 6 7 10 10 10 10 8 8 9 8 6 6 5 4 5 5 5 4 5 5 4 4 4 2 2 6 7 8 10 10 8 5 5 8 9
3 5 6 8 10 10 12 13 12 11 8 5 3 3 3 4 5 5 5 7 6 6 6 5 4 5 7 8 6 4 4 4 3 3 3 5 6 6 6 5 5 7 8 8 9 10 10 9 12 11 6 7 11 12 11 10 8 7 9 8 5 5 4 4 5 6 6 7 7 5 4 4 4 3 1 1 4 6 5 5 5 3 5 11 7
4 4 4 6 8 9 10 11 12 12 9 7 5 4 4 3 4 5 5 6 7 7 6 5 4 5 7 9 7 4 4 4 3 3 3 5 6 6 6 5 5 6 8 10 10 11 11 10 12 12 8 7 11 13 12 11 8 7 9 8 4 4 4 4 6 7 7 9 7 4 5 3 2 4 3 3 6 2 -1 2 2 -2 -1 6 6
6 5 4 5 5 8 9 9 10 11 10 9 7 6 5 4 4 5 5 5 6 6 7 6 5 5 7 10 9 6 4 4 4 3 3 4 5 6 6 5 5 7 8 11 12 12 12 11 12 12 9 8 9 11 12 11 8 7 7 6 3 4 5 5 5 5 6 7 5 4 6 4 3 5 6 6 6 2 4 4 -7 -10 2 14 16
10 6 6 6 5 6 8 8 8 9 9 10 9 8 7 5 4 4 5 6 6 6 7 6 5 5 6 8 9 6 3 3 4 2 3 4 5 6 6 5 5 7 9 11 12 13 13 12 13 12 10 9 8 10 14 12 8 7 6 4 3 3 4 4 3 4 4 5 5 6 7 6 6 8 7 6 4 2 2 -3 -13 -11 -1 8 16
17 11 7 6 6 6 6 7 8 9 9 9 8 8 7 6 5 5 5 6 7 7 7 7 6 5 6 8 9 7 4 3 3 2 3 5 6 7 6 4 5 8 9 11 13 13 14 14 13 13 12 10 9 11 15 12 7 5 4 3 3 3 3 3 3 3 3 5 6 5 6 8 9 7 5 4 3 -1 -5 -6 -5 -5 -5 6 19
18 17 12 8 7 7 6 6 7 7 9 10 9 8 7 6 5 5 6 6 7 8 9 8 7 6 6 8 8 6 4 4 3 2 3 5 6 7 6 4 5 8 10 12 13 13 13 13 14 15 14 11 9 12 15 12 6 4 3 3 3 3 3 3 3 2 3 5 5 5 7 9 7 4 3 2 3 5 5 4 -1 -3 7 21 19
12 17 17 13 9 7 7 7 7 7 7 8 9 9 8 7 7 7 7 8 8 9 9 10 9 8 7 8 8 6 5 4 3 1 3 5 7 8 6 4 5 9 11 12 13 12 11 11 13 15 13 10 11 14 15 11 5 3 3 2 2 3 4 3 2 3 4 5 5 7 7 6 4 2 2 2 2 7 13 8 -0 5 19 20 5
7 11 16 17 13 9 8 7 8 8 8 8 8 8 8 8 8 9 9 9 9 9 10 11 10 9 8 8 7 6 6 5 3 1 3 6 8 9 7 4 5 9 11 11 12 11 10 10 11 12 11 10 13 15 14 9 5 4 4 2 2 3 3 2 2 3 5 6 6 6 5 3 4 3 2 3 1 2 9 8 4 11 17 9 2
7 7 10 15 16 13 11 8 7 8 8 9 9 9 8 7 7 10 10 10 9 9 10 11 11 10 9 8 8 8 7 5 3 2 5 8 9 9 7 5 6 8 9 10 11 10 10 11 10 10 11 12 14 15 12 8 4 4 3 2 2 3 2 2 3 3 5 6 6 5 3 2 4 3 1 2 4 4 8 9 7 10 13 10 7
8 7 7 10 14 15 14 12 10 9 7 9 11 12 11 9 8 10 10 10 9 9 10 11 11 10 9 9 9 9 8 6 3 3 6 8 9 8 7 6 7 7 9 10 10 10 11 12 9 8 11 13 13 12 9 6 5 3 2 2 2 2 3 2 3 4 4 5 5 5 5 3 2 3 2 2 5 9 11 11 10 11 12 11 8
8 8 7 8 11 14 16 16 15 12 8 7 10 13 15 13 11 10 10 10 10 11 12 11 10 9 10 10 11 9 6 4 3 5 7 7 7 7 7 8 7 7 9 10 11 11 11 11 10 9 11 10 10 11 9 6 5 3 2 3 2 2 3 2 3 4 3 3 5 5 5 4 1 1 2 2 3 6 8 9 9 9 8 8 7
8 8 7 8 11 12 14 16 17 13 9 7 9 12 15 15 13 12 11 10 11 11 11 10 8 9 10 12 11 8 5 2 3 5 7 6 7 7 7 8 8 8 10 11 11 11 10 10 11 12 10 6 6 11 10 7 6 3 2 3 3 2 2 2 3 4 3 4 6 4 3 4 2 1 2 2 4 8 9 7 5 3 2 4 6
9 9 7 7 10 13 13 15 16 14 9 7 8 12 15 15 15 14 12 12 11 10 9 9 11 12 13 13 11 7 5 4 5 6 7 6 6 7 6 7 8 9 10 10 10 9 9 11 13 12 9 4 4 9 11 8 6 4 2 3 3 2 2 3 4 4 4 5 5 4 3 3 2 2 0 -0 6 12 10 3 -0 -0 -1 1 7
8 9 9 7 9 12 13 14 15 14 10 8 9 12 15 15 14 14 13 11 10 9 10 11 12 12 11 9 7 5 4 4 5 6 6 5 5 6 7 8 9 10 9 9 9 9 10 11 13 12 8 3 2 6 9 9 7 4 2 3 3 2 2 3 4 4 5 7 6 4 3 2 2 2 0 0 5 8 4 -2 -2 1 0 2 8
9 10 9 8 10 13 13 14 15 15 11 9 10 13 15 14 13 12 12 11 10 9 10 11 10 9 7 5 5 4 4 5 6 6 6 6 5 6 6 8 9 9 8 8 9 10 11 11 12 10 6 4 4 5 8 8 6 3 2 2 2 2 3 3 4 6 8 9 7 4 3 3 2 -0 -2 -0 2 4 5 3 2 2 0 2 8
11 11 8 8 10 13 15 16 17 16 12 12 13 15 15 13 12 11 10 10 10 10 9 9 7 5 4 4 4 5 4 5 6 5 5 5 5 5 6 7 8 8 8 9 10 10 10 10 10 8 5 6 7 6 4 5 6 5 3 3 2 2 2 2 5 8 10 9 7 5 5 3 -0 -3 -1 0 0 2 5 6 6 6 5 6 8
12 10 9 9 10 14 16 18 18 16 13 13 14 15 15 13 12 11 11 10 10 9 8 7 7 6 6 6 6 6 6 6 6 6 6 6 5 5 5 6 8 9 9 10 10 9 8 7 7 7 7 8 8 6 3 5 7 6 4 3 3 2 3 5 8 8 8 7 6 6 6 3 -2 -1 2 2 1 2 3 4 5 6 6 7 8
11 9 9 9 10 13 15 16 16 15 13 12 13 14 13 13 12 11 11 10 9 9 8 8 8 9 9 9 9 8 8 9 9 9 9 8 8 7 7 8 9 10 10 10 9 8 7 7 9 9 8 7 6 6 5 6 8 8 5 3 3 3 5 7 7 6 6 5 5 7 7 4 2 4 4 2 2 3 3 2 3 3 4 6 6
9 11 10 8 10 14 16 17 17 17 16 14 15 14 12 12 12 12 11 11 11 11 11 11 12 12 10 10 10 10 9 8 9 10 10 10 11 10 10 11 11 10 10 10 9 8 7 8 9 9 7 5 5 6 7 7 7 7 5 3 3 3 4 5 5 5 4 3 4 6 7 6 4 3 2 1 1 3 3 2 2 3 4 4 4
10 11 10 10 13 15 16 17 15 15 15 13 11 11 10 9 10 11 12 12 11 11 10 8 8 9 9 9 9 8 8 7 6 6 7 7 8 9 10 12 13 12 12 10 8 8 9 9 8 6 5 4 4 6 6 6 6 5 3 3 2 2 3 4 5 5 3 3 5 6 5 5 4 3 3 3 4 4 4 3 2 2 3 4 4
10 11 9 9 11 12 12 13 12 12 13 12 11 10 9 9 10 10 10 8 7 7 7 6 6 7 7 8 10 10 11 12 11 10 10 10 11 9 8 10 13 14 16 15 11 8 7 8 8 7 5 4 4 5 6 6 6 6 4 3 3 2 3 4 5 5 3 4 5 4 3 3 4 4 4 4 2 3 3 3 2 2 3 4 4
8 7 6 5 7 11 13 13 13 14 14 12 11 10 9 9 10 9 7 4 3 4 5 5 6 6 6 6 7 9 10 11 12 13 12 12 12 11 11 13 14 14 14 16 17 13 8 6 5 5 6 6 5 5 5 4 4 5 5 4 3 3 4 5 6 5 4 4 4 3 3 4 3 2 1 0 1 2 1 2 4 5 5 6 6
7 6 5 5 7 11 12 9 9 11 11 9 8 8 8 8 7 6 5 3 2 1 2 2 3 4 4 5 5 6 8 8 7 7 6 6 7 9 11 13 15 15 11 9 13 17 15 11 9 6 5 5 4 4 4 4 4 5 5 5 5 6 7 7 6 4 3 4 4 4 5 4 3 2 1 2 4 2 -0 1 5 6 7 6 5
5 7 8 7 6 7 7 6 5 5 6 6 7 7 5 5 4 3 3 3 3 2 1 1 2 3 5 4 3 5 7 6 5 4 3 2 3 4 5 5 8 13 13 10 10 11 12 13 13 10 8 6 6 5 5 6 7 8 8 8 8 8 7 6 5 4 4 5 4 3 4 3 3 6 8 6 2 -1 -1 3 7 7 6 6 4
5 8 10 10 7 4 3 4 5 5 3 4 6 6 4 2 2 2 2 2 4 4 2 1 3 3 3 3 3 3 4 5 7 7 6 5 3 0 1 2 3 4 5 7 9 9 10 12 13 12 11 11 9 10 11 11 11 11 11 10 9 8 7 5 5 5 4 4 2 2 4 5 5 11 14 7 -1 -2 1 5 8 6 5 5 4
9 7 9 11 11 9 6 3 3 3 3 4 4 4 3 1 -0 -0 1 1 2 1 -0 1 2 2 1 2 4 5 4 4 6 6 7 9 7 3 2 2 2 2 1 3 6 7 6 8 9 8 9 9 9 11 12 12 11 11 9 8 7 6 5 3 3 3 3 3 3 5 8 7 4 6 8 3 -2 1 5 7 7 6 5 5 4
10 7 7 8 11 14 15 12 8 4 1 2 3 4 5 4 1 -1 -1 -0 1 0 0 1 2 1 1 3 4 4 4 4 4 3 4 7 8 9 8 4 2 3 3 3 6 5 3 8 13 11 8 6 6 5 4 4 5 5 5 5 4 3 3 3 5 6 5 4 5 6 6 5 2 2 5 5 4 6 7 6 6 5 4 4 4
8 7 7 5 5 7 10 14 18 15 9 6 5 4 4 3 3 2 -0 -1 0 1 1 2 3 3 4 5 6 4 1 1 3 3 4 5 5 6 7 6 5 5 4 4 8 7 4 8 12 8 4 4 5 4 4 5 5 3 4 5 5 5 7 7 6 5 5 6 7 6 6 5 6 6 7 6 6 7 6 5 5 4 3 4 4
6 5 6 6 6 5 3 5 10 13 14 14 13 11 9 7 6 6 3 1 2 2 0 1 4 5 4 3 4 4 2 1 3 3 5 7 6 4 4 4 5 4 1 0 3 2 1 4 5 2 3 5 5 4 5 6 5 4 2 3 5 8 9 5 3 5 9 9 8 7 6 7 7 5 4 4 6 7 6 5 4 3 3 4 4
5 5 6 5 5 5 5 4 4 4 6 8 10 12 13 13 13 13 10 8 8 7 7 8 10 12 11 8 6 5 3 2 3 4 5 6 6 7 7 5 4 4 3 2 2 2 1 2 2 2 3 4 4 4 4 4 4 4 2 2 5 9 10 9 10 15 17 14 11 10 9 7 4 2 3 5 6 6 5 4 4 3 4 5 5
5 7 8 7 6 5 4 4 5 5 4 4 5 7 9 10 11 12 13 12 10 9 10 10 10 11 11 8 6 6 5 3 4 6 6 6 6 8 10 9 11 16 18 18 18 18 17 17 16 14 13 15 15 12 7 2 -1 1 5 10 11 11 12 13 14 15 13 11 10 10 8 6 4 3 5 7 6 5 4 3 3 4 5 6 5
3 3 6 9 10 10 9 6 4 4 5 5 5 6 7 9 10 12 13 13 11 10 9 8 7 7 7 5 4 5 5 5 5 5 5 7 10 14 15 15 17 19 19 18 17 16 15 17 16 13 15 23 28 27 23 18 10 5 8 13 13 12 13 12 8 7 7 7 6 6 5 5 5 6 6 6 4 3 3 4 5 6 6 5 5
3 2 6 8 9 9 10 10 9 7 7 8 10 10 11 12 14 15 16 16 15 13 13 11 9 8 6 6 7 8 9 10 11 11 12 15 17 19 18 17 16 14 12 12 13 13 12 11 10 10 15 18 16 16 23 27 20 10 7 8 7 5 5 3 3 4 3 2 3 4 5 6 6 5 5 4 3 4 5 6 6 5 5 7 10
-0 1 4 8 10 11 11 11 12 12 12 11 13 14 15 15 16 15 16 17 17 17 17 16 16 16 15 14 15 17 17 18 19 19 20 20 18 15 13 10 9 8 8 10 11 11 10 8 7 10 14 11 1 -2 4 10 10 7 8 11 11 7 3 2 4 3 -1 -1 4 6 6 6 5 4 3 4 5 6 6 6 6 7 8 11 11
1 2 3 7 11 14 16 16 15 15 14 13 14 15 13 12 13 13 12 11 12 13 14 13 13 14 15 15 15 15 15 15 15 16 15 12 10 9 10 10 10 9 7 7 7 8 8 8 6 6 7 6 3 4 6 6 7 8 8 10 12 13 11 8 4 -1 -3 3 8 8 6 5 4 4 6 7 7 7 6 7 9 11 10 9 7
0 -0 3 9 12 12 14 16 17 17 17 15 14 12 9 8 8 9 9 8 7 9 12 13 11 10 11 12 13 14 14 12 10 8 7 6 6 7 7 8 10 8 4 4 8 14 18 19 20 20 18 15 12 11 9 10 12 13 10 7 8 10 8 4 -2 -3 1 7 8 6 6 7 6 7 7 7 6 7 9 11 12 11 8 6 5
3 -0 2 8 10 9 10 12 14 16 19 20 16 12 9 8 6 6 8 10 7 4 5 8 9 7 7 7 7 6 7 7 7 7 7 9 10 11 10 9 11 13 13 12 12 10 7 7 10 12 10 10 11 11 10 10 10 10 8 6 6 5 3 -1 -1 2 7 8 7 6 7 7 6 6 6 6 8 11 12 12 10 6 3 0 -0
3 1 3 6 4 3 5 8 10 10 13 17 18 16 12 10 8 5 5 10 10 5 2 4 6 6 5 5 5 4 4 5 7 8 9 10 10 9 9 9 9 10 12 13 10 5 1 2 4 5 4 6 10 12 13 13 11 9 7 6 4 3 2 2 4 6 6 5 6 6 6 5 6 8 8 10 13 15 13 10 7 3 1 -2 -4
1 0 3 7 5 1 0 3 6 7 8 8 10 12 11 10 9 6 3 5 8 10 10 13 15 16 13 10 8 7 6 6 5 3 3 3 2 1 2 3 4 4 6 7 8 7 6 6 7 8 10 11 11 10 9 10 9 7 6 6 5 4 4 4 5 6 7 8 9 10 10 11 14 16 17 17 17 14 10 7 6 4 2 -1 -4
2 1 2 5 3 -2 -1 1 1 2 5 5 4 5 6 6 7 8 5 2 1 3 4 6 10 16 20 21 19 16 13 9 7 6 6 7 7 7 7 8 7 6 6 7 8 9 10 10 11 11 11 12 12 13 13 12 10 7 5 4 4 4 5 6 8 10 12 14 16 18 21 22 22 20 18 15 11 7 6 5 5 5 4 3 2
2 0 3 8 5 -1 -1 1 0 0 3 6 5 5 5 3 4 5 6 5 4 2 -0 -1 -1 1 7 13 17 20 21 19 16 13 11 9 8 8 9 10 10 10 10 9 9 8 7 7 7 5 3 4 7 9 8 7 6 5 4 4 5 7 8 10 13 15 17 18 20 21 21 18 12 8 5 3 2 2 1 0 -1 1 4 7 10
7 7 7 7 5 2 0 -0 -0 0 1 2 4 7 6 5 4 4 2 2 3 2 -0 -1 -3 -7 -9 -5 1 7 13 18 20 18 16 14 12 11 10 9 9 9 8 7 6 5 5 4 4 4 5 8 10 10 9 10 10 10 10 10 12 13 14 16 19 20 20 18 15 12 7 3 1 0 1 1 -0 -2 -4 -4 -0 6 12 15 17
6 10 9 5 2 1 -0 -1 -0 0 0 1 3 6 6 5 6 6 4 2 1 -0 -1 -1 -1 -5 -8 -6 -3 0 5 11 14 15 16 17 15 13 12 10 8 7 7 7 7 8 9 10 12 14 15 16 17 17 17 18 18 18 17 15 14 14 14 14 15 14 11 8 5 3 2 2 2 2 0 -1 -1 -0 3 7 13 18 18 17 15
7 6 9 14 14 8 2 1 0 -2 -2 -0 1 2 4 5 5 4 4 4 2 1 1 1 1 -2 -3 -4 -3 -2 2 6 9 10 11 11 9 7 9 10 10 11 13 14 14 14 14 14 15 15 15 14 14 14 14 14 14 15 14 13 12 11 10 9 8 7 6 5 4 4 4 3 1 -0 2 6 10 13 16 17 18 17 16 14 13
27 19 11 14 15 8 3 5 5 1 -1 1 1 -0 1 3 4 5 6 6 5 3 3 4 4 3 3 4 4 3 4 5 6 7 8 8 8 7 7 7 8 8 8 7 7 7 7 8 8 7 7 8 9 10 10 11 11 11 10 9 10 10 9 7 5 4 3 2 1 1 1 1 2 7 13 17 17 16 15 16 16 15 14 13 12
Height
5918 5919 5921 5923 5925 5928 5930 5932 5934 5936 5938 5940 5941 5943 5944 5946 5947 5949 5950 5952 5953 5955 5956 5957 5958 5959 5960 5961 5962 5963 5964 5965 5966 5967 5967 5968 5969 5969 5969 5969 5969 5969 5969 5969 5969 5969 5969 5969 5970 5970 5969 5969 5969 5968 5968 5968 5968 5969 5969 5969 5969 5969 5970 5970 5970 5970 5970 5970 5970 5970 5970 5969 5969 5968 5968 5967 5967 5966 5965 5964 5963 5962 5960 5959 5957
5917 5919 5920 5922 5924 5926 5928 5930 5931 5933 5936 5938 5940 5942 5943 5945 5946 5948 5949 5951 5952 5953 5954 5956 5957 5958 5959 5960 5961 5962 5964 5964 5965 5966 5967 5967 5968 5968 5968 5968 5969 5969 5969 5969 5969 5969 5969 5969 5969 5969 5969 5969 5969 5968 5968 5968 5968 5969 5969 5969 5970 5970 5970 5970 5970 5970 5970 5970 5970 5970 5970 5969 5968 5968 5968 5967 5967 5966 5965 5964 5963 5961 5960 5958 5956
5915 5917 5919 5921 5923 5925 5926 5928 5930 5931 5934 5936 5938 5940 5942 5943 5944 5946 5948 5949 5950 5952 5953 5954 5956 5957 5958 5959 5960 5961 5962 5963 5964 5965 5966 5966 5967 5967 5968 5968 5968 5968 5968 5968 5968 5968 5968 5968 5969 5969 5969 5969 5969 5968 5968 5968 5968 5969 5969 5969 5969 5970 5970 5970 5970 5970 5970 5970 5970 5970 5970 5970 5969 5968 5967 5967 5966 5965 5964 5963 5962 5960 5959 5957 5956
5913 5915 5918 5919 5920 5922 5925 5927 5928 5930 5932 5934 5936 5938 5939 5941 5943 5945 5946 5947 5949 5950 5952 5953 5954 5956 5957 5958 5959 5960 5961 5962 5963 5964 5965 5965 5966 5966 5967 5967 5967 5967 5967 5967 5968 5968 5967 5968 5968 5968 5968 5968 5968 5968 5968 5968 5968 5969 5969 5969 5969 5970 5970 5970 5970 5970 5970 5970 5970 5970 5970 5970 5968 5967 5967 5966 5966 5964 5963 5962 5960 5959 5957 5956 5955
5912 5914 5916 5917 5919 5921 5923 5925 5927 5929 5931 5932 5934 5935 5937 5939 5941 5943 5944 5946 5947 5949 5950 5952 5953 5954 5955 5956 5957 5959 5960 5961 5962 5963 5964 5964 5965 5965 5965 5966 5966 5966 5966 5966 5967 5967 5967 5967 5967 5967 5967 5968 5968 5968 5968 5968 5968 5968 5969 5969 5969 5969 5970 5970 5970 5970 5970 5969 5969 5970 5970 5970 5969 5967 5966 5965 5964 5963 5962 5961 5960 5959 5957 5956 5953
5910 5911 5913 5915 5917 5920 5922 5924 5926 5927 5929 5930 5932 5933 5935 5937 5939 5940 5942 5944 5945 5947 5948 5950 5951 5952 5953 5955 5956 5957 5959 5960 5961 5962 5963 5963 5964 5964 5964 5964 5964 5965 5965 5965 5966 5966 5965 5966 5966 5966 5966 5967 5967 5968 5968 5967 5967 5968 5968 5969 5969 5969 5969 5970 5970 5970 5970 5969 5969 5969 5969 5969 5968 5966 5965 5964 5963 5962 5961 5960 5960 5958 5956 5953 5950
5907 5909 5911 5913 5916 5918 5920 5922 5923 5925 5927 5928 5930 5932 5933 5935 5936 5938 5940 5941 5943 5945 5947 5948 5949 5950 5952 5953 5954 5956 5957 5958 5959 5960 5961 5962 5962 5962 5963 5963 5963 5963 5964 5964 5964 5964 5964 5965 5965 5965 5965 5965 5966 5967 5967 5967 5967 5967 5968 5968 5969 5969 5969 5969 5970 5970 5969 5969 5969 5968 5968 5968 5966 5965 5964 5963 5961 5960 5960 5960 5960 5957 5953 5950 5948
5905 5907 5908 5911 5914 5916 5917 5919 5920 5922 5924 5926 5928 5930 5932 5933 5934 5936 5937 5939 5941 5943 5944 5946 5947 5948 5950 5951 5953 5954 5956 5957 5958 5958 5959 5960 5960 5961 5961 5961 5961 5962 5962 5963 5963 5963 5963 5963 5964 5964 5964 5964 5965 5966 5966 5966 5966 5966 5967 5967 5968 5968 5969 5969 5969 5969 5969 5969 5968 5968 5968 5967 5966 5964 5962 5961 5959 5959 5959 5960 5958 5955 5951 5948 5946
5903 5905 5907 5909 5912 5913 5914 5916 5918 5919 5921 5923 5926 5928 5930 5931 5932 5934 5936 5937 5939 5940 5942 5943 5945 5946 5948 5949 5951 5952 5954 5955 5956 5956 5957 5957 5958 5959 5959 5960 5960 5960 5960 5961 5961 5961 5961 5962 5962 5963 5963 5963 5964 5965 5965 5965 5965 5965 5966 5966 5967 5967 5968 5968 5968 5968 5968 5968 5967 5967 5967 5966 5965 5962 5960 5959 5957 5957 5958 5959 5957 5952 5949 5946 5943
5901 5903 5905 5908 5909 5910 5911 5913 5915 5916 5919 5921 5923 5925 5927 5929 5930 5932 5934 5935 5936 5938 5939 5941 5942 5944 5945 5947 5948 5950 5951 5952 5953 5954 5954 5955 5956 5957 5958 5958 5958 5958 5958 5959 5959 5959 5959 5960 5960 5961 5961 5962 5962 5963 5963 5964 5964 5964 5964 5965 5965 5966 5966 5967 5967 5967 5967 5967 5966 5965 5965 5964 5963 5960 5958 5956 5953 5954 5956 5957 5955 5951 5947 5945 5943
5899 5901 5903 5905 5906 5907 5909 5910 5912 5914 5916 5918 5920 5922 5924 5926 5928 5930 5931 5933 5934 5936 5937 5938 5940 5941 5943 5944 5946 5948 5949 5950 5950 5951 5952 5953 5954 5955 5955 5956 5956 5956 5956 5957 5957 5957 5957 5958 5958 5959 5960 5960 5961 5961 5962 5962 5963 5963 5963 5964 5964 5964 5965 5965 5965 5966 5965 5965 5964 5963 5962 5962 5960 5958 5955 5951 5948 5950 5955 5957 5955 5951 5947 5944 5943
5897 5898 5900 5901 5903 5904 5906 5908 5910 5911 5913 5916 5917 5919 5921 5923 5925 5927 5929 5930 5932 5933 5935 5936 5937 5938 5940 5942 5944 5945 5946 5947 5948 5949 5950 5951 5952 5952 5953 5953 5954 5954 5954 5954 5955 5955 5955 5956 5957 5957 5958 5959 5959 5960 5960 5961 5961 5962 5962 5963 5963 5963 5963 5964 5964 5964 5963 5963 5962 5961 5960 5959 5958 5956 5953 5948 5943 5944 5951 5956 5954 5951 5947 5944 5941
5893 5895 5897 5899 5901 5902 5903 5905 5907 5909 5911 5913 5914 5916 5918 5920 5923 5924 5926 5927 5929 5930 5932 5934 5935 5936 5938 5940 5941 5943 5944 5945 5946 5947 5948 5949 5950 5950 5951 5951 5952 5952 5952 5952 5952 5953 5953 5954 5955 5956 5956 5957 5957 5958 5959 5959 5960 5961 5961 5961 5961 5961 5961 5961 5962 5962 5962 5961 5960 5959 5957 5956 5955 5953 5950 5945 5940 5937 5944 5952 5952 5948 5945 5942 5939
5890 5892 5894 5897 5898 5900 5901 5903 5905 5907 5909 5910 5912 5913 5916 5918 5920 5921 5923 5924 5926 5928 5930 5931 5933 5935 5936 5938 5939 5940 5942 5943 5944 5945 5946 5947 5948 5948 5949 5950 5950 5950 5950 5950 5950 5951 5951 5952 5953 5954 5955 5955 5956 5956 5957 5958 5959 5959 5960 5960 5960 5959 5959 5959 5959 5959 5959 5959 5958 5956 5954 5953 5953 5951 5947 5943 5938 5935 5940 5948 5948 5945 5942 5940 5938
5887 5889 5891 5894 5895 5897 5899 5901 5903 5904 5906 5907 5909 5912 5913 5915 5917 5918 5920 5922 5924 5925 5927 5929 5931 5933 5934 5936 5937 5938 5940 5941 5942 5943 5944 5945 5946 5946 5947 5948 5948 5948 5948 5948 5948 5949 5949 5950 5951 5952 5953 5953 5954 5955 5955 5956 5957 5958 5958 5958 5958 5958 5957 5957 5957 5956 5956 5956 5955 5954 5951 5949 5949 5948 5944 5939 5935 5934 5940 5946 5945 5942 5941 5939 5937
5883 5886 5888 5891 5893 5895 5897 5899 5900 5902 5903 5905 5907 5910 5911 5913 5914 5915 5917 5919 5921 5923 5925 5927 5929 5930 5932 5933 5935 5936 5937 5939 5940 5941 5942 5943 5943 5944 5945 5946 5946 5946 5946 5946 5947 5947 5948 5948 5949 5950 5951 5952 5952 5953 5953 5954 5955 5956 5956 5956 5956 5956 5956 5955 5954 5953 5953 5953 5953 5951 5948 5945 5944 5944 5942 5936 5930 5931 5938 5943 5942 5940 5939 5938 5936
5880 5883 5886 5888 5890 5892 5894 5896 5898 5899 5901 5903 5905 5907 5909 5910 5911 5912 5914 5916 5918 5920 5922 5924 5926 5927 5929 5931 5933 5934 5935 5936 5938 5939 5939 5940 5941 5942 5943 5943 5944 5944 5944 5944 5945 5945 5946 5946 5947 5948 5949 5949 5950 5951 5951 5952 5953 5954 5954 5954 5954 5954 5953 5952 5952 5951 5951 5950 5949 5948 5946 5942 5939 5938 5937 5933 5927 5928 5935 5939 5938 5938 5937 5936 5934
5878 5881 5884 5885 5887 5889 5891 5893 5895 5896 5898 5901 5903 5904 5905 5907 5908 5910 5912 5914 5916 5918 5919 5921 5923 5924 5926 5928 5930 5931 5932 5934 5935 5936 5937 5938 5939 5940 5940 5941 5941 5942 5942 5942 5943 5943 5944 5944 5945 5946 5947 5947 5948 5949 5949 5950 5951 5952 5952 5952 5952 5952 5951 5950 5949 5949 5948 5947 5947 5945 5943 5940 5936 5933 5932 5930 5926 5928 5934 5935 5934 5934 5933 5931 5929
5876 5879 5881 5882 5884 5886 5888 5890 5891 5893 5896 5898 5899 5901 5902 5903 5905 5907 5909 5911 5913 5915 5916 5918 5920 5922 5924 5926 5928 5929 5930 5931 5933 5934 5935 5936 5936 5937 5938 5939 5939 5939 5939 5940 5941 5941 5942 5942 5943 5943 5944 5945 5945 5946 5947 5948 5948 5949 5949 5949 5950 5949 5949 5948 5947 5947 5946 5945 5944 5943 5941 5939 5935 5931 5928 5926 5924 5927 5931 5930 5928 5928 5927 5926 5924
5874 5876 5877 5879 5881 5883 5885 5887 5889 5891 5893 5895 5896 5897 5899 5900 5902 5904 5907 5909 5910 5912 5914 5916 5918 5920 5922 5923 5925 5926 5927 5929 5930 5931 5932 5933 5934 5935 5935 5936 5936 5936 5936 5937 5938 5939 5939 5940 5940 5941 5941 5942 5943 5944 5944 5945 5946 5946 5946 5946 5947 5947 5946 5946 5945 5944 5943 5942 5940 5940 5938 5936 5934 5930 5926 5922 5921 5923 5926 5926 5924 5923 5922 5921 5920
5871 5873 5874 5876 5879 5881 5883 5884 5886 5888 5890 5891 5892 5894 5895 5897 5900 5902 5904 5906 5908 5910 5912 5914 5916 5918 5919 5921 5922 5924 5925 5926 5927 5928 5929 5931 5931 5932 5933 5933 5933 5933 5934 5935 5935 5936 5937 5937 5938 5939 5939 5939 5940 5940 5941 5942 5942 5943 5943 5943 5943 5943 5943 5943 5942 5941 5939 5938 5937 5936 5935 5934 5932 5929 5925 5921 5918 5918 5920 5921 5921 5919 5918 5917 5915
5868 5870 5872 5874 5876 5878 5880 5882 5884 5885 5887 5888 5890 5891 5893 5895 5897 5899 5901 5904 5906 5908 5910 5912 5914 5915 5917 5918 5920 5921 5922 5923 5924 5926 5927 5928 5929 5929 5930 5930 5930 5930 5931 5932 5933 5933 5934 5935 5935 5936 5936 5936 5937 5937 5938 5939 5939 5940 5940 5940 5940 5940 5939 5939 5938 5937 5936 5935 5934 5933 5932 5931 5929 5927 5924 5921 5917 5914 5913 5913 5913 5913 5912 5910 5908
5865 5868 5870 5872 5874 5876 5878 5879 5881 5882 5884 5886 5887 5889 5891 5893 5895 5897 5899 5901 5904 5906 5907 5909 5911 5913 5914 5916 5917 5918 5919 5920 5922 5923 5924 5925 5926 5927 5927 5928 5928 5928 5928 5929 5930 5931 5931 5932 5932 5933 5933 5934 5934 5934 5935 5935 5936 5937 5936 5936 5936 5936 5936 5935 5934 5934 5933 5932 5931 5930 5928 5927 5926 5924 5922 5919 5917 5914 5911 5909 5907 5905 5904 5903 5900
5863 5866 5868 5870 5872 5873 5875 5876 5878 5879 5881 5883 5885 5887 5888 5891 5893 5895 5897 5899 5901 5903 5905 5906 5908 5910 5911 5913 5914 5915 5916 5917 5919 5920 5921 5922 5923 5924 5924 5924 5925 5925 5926 5926 5927 5927 5928 5929 5929 5930 5931 5931 5931 5931 5932 5932 5933 5933 5933 5933 5933 5932 5932 5931 5931 5930 5929 5929 5928 5927 5925 5924 5922 5920 5919 5917 5915 5913 5910 5907 5905 5902 5900 5898 5896
5861 5863 5865 5867 5869 5870 5872 5873 5875 5877 5879 5880 5882 5884 5886 5888 5891 5893 5894 5896 5898 5900 5902 5904 5905 5907 5908 5910 5911 5912 5913 5914 5915 5917 5918 5918 5919 5920 5920 5921 5921 5922 5923 5923 5924 5924 5925 5926 5927 5927 5927 5927 5928 5928 5929 5929 5929 5930 5930 5929 5929 5928 5928 5928 5927 5927 5926 5925 5924 5923 5922 5921 5919 5917 5915 5914 5912 5910 5908 5905 5902 5900 5898 5895 5893
5859 5860 5862 5864 5866 5867 5869 5871 5872 5874 5876 5878 5880 5882 5884 5886 5888 5890 5892 5894 5896 5897 5899 5901 5902 5904 5905 5906 5908 5909 5910 5911 5912 5913 5914 5915 5915 5916 5916 5917 5917 5918 5919 5920 5920 5921 5922 5922 5923 5923 5923 5924 5924 5925 5925 5926 5926 5926 5926 5925 5925 5925 5924 5924 5923 5923 5922 5921 5920 5919 5918 5917 5916 5914 5912 5910 5908 5906 5904 5902 5899 5897 5895 5892 5890
5855 5857 5859 5860 5862 5864 5866 5868 5869 5871 5873 5875 5877 5879 5881 5883 5885 5887 5889 5891 5893 5895 5896 5898 5899 5901 5902 5903 5904 5905 5906 5907 5908 5909 5910 5910 5911 5911 5912 5913 5913 5914 5915 5916 5917 5917 5918 5918 5919 5919 5919 5920 5920 5921 5922 5922 5921 5921 5921 5921 5920 5920 5920 5919 5919 5918 5918 5917 5915 5914 5913 5912 5911 5910 5908 5906 5904 5902 5900 5898 5895 5893 5891 5889 5886
5852 5853 5855 5857 5859 5861 5863 5865 5867 5869 5871 5873 5875 5877 5879 5881 5883 5885 5887 5889 5890 5892 5893 5894 5896 5897 5899 5900 5900 5901 5902 5903 5904 5904 5905 5906 5906 5907 5908 5908 5909 5910 5911 5912 5912 5913 5913 5914 5914 5915 5915 5916 5916 5917 5917 5917 5917 5917 5917 5916 5916 5916 5915 5915 5914 5914 5913 5912 5911 5910 5909 5908 5906 5904 5903 5901 5899 5897 5895 5893 5891 5889 5887 5884 5882
5848 5850 5852 5854 5856 5858 5860 5862 5864 5866 5868 5870 5872 5874 5876 5878 5881 5882 5884 5885 5887 5888 5889 5891 5892 5893 5895 5896 5897 5898 5899 5899 5900 5900 5901 5901 5902 5903 5904 5904 5905 5906 5906 5907 5907 5908 5909 5909 5910 5911 5911 5911 5911 5912 5912 5912 5912 5912 5912 5912 5912 5911 5911 5910 5910 5909 5909 5908 5907 5906 5904 5903 5901 5899 5897 5896 5894 5892 5890 5888 5886 5884 5882 5879 5877
5845 5847 5849 5851 5853 5855 5857 5859 5861 5863 5865 5867 5869 5871 5873 5875 5877 5879 5880 5882 5884 5885 5886 5887 5889 5890 5891 5892 5893 5894 5895 5896 5896 5897 5897 5898 5899 5900 5901 5901 5902 5902 5902 5903 5904 5904 5905 5905 5906 5906 5907 5907 5907 5907 5908 5908 5908 5908 5908 5908 5907 5907 5906 5906 5905 5905 5904 5903 5902 5901 5899 5898 5896 5894 5893 5891 5889 5887 5885 5883 5881 5879 5877 5874 5872
5842 5844 5846 5847 5849 5851 5853 5855 5857 5859 5861 5864 5866 5868 5870 5872 5874 5875 5877 5879 5880 5881 5882 5884 5885 5887 5887 5888 5889 5891 5892 5892 5893 5893 5894 5895 5895 5896 5897 5898 5898 5899 5899 5899 5900 5900 5901 5902 5902 5902 5902 5902 5902 5903 5903 5904 5903 5903 5903 5903 5902 5902 5902 5901 5901 5900 5899 5898 5897 5896 5894 5893 5891 5889 5888 5886 5884 5882 5880 5878 5876 5874 5871 5868 5866
5838 5840 5842 5844 5846 5848 5849 5851 5853 5855 5858 5860 5862 5864 5866 5868 5870 5872 5873 5875 5876 5877 5879 5880 5881 5882 5883 5884 5886 5887 5888 5888 5889 5890 5890 5891 5892 5893 5894 5895 5895 5895 5896 5896 5896 5897 5897 5896 5896 5897 5897 5897 5898 5898 5898 5898 5898 5898 5898 5898 5898 5898 5897 5896 5896 5895 5894 5893 5892 5890 5889 5888 5886 5884 5882 5880 5878 5876 5874 5872 5870 5868 5865 5862 5859
5834 5836 5837 5839 5842 5844 5846 5848 5850 5851 5854 5856 5858 5860 5862 5864 5866 5868 5869 5871 5872 5873 5874 5875 5877 5878 5879 5880 5882 5883 5884 5884 5885 5886 5887 5888 5889 5890 5891 5892 5892 5892 5893 5892 5893 5893 5893 5892 5893 5894 5894 5892 5892 5893 5893 5893 5893 5894 5894 5893 5893 5893 5892 5891 5891 5890 5889 5888 5886 5885 5884 5882 5880 5878 5876 5875 5873 5871 5869 5867 5865 5862 5859 5857 5854
5830 5832 5833 5835 5837 5839 5841 5844 5846 5848 5850 5852 5854 5856 5857 5859 5861 5863 5865 5866 5867 5868 5869 5871 5873 5874 5875 5876 5877 5879 5879 5880 5881 5882 5882 5883 5884 5885 5886 5887 5888 5888 5889 5889 5889 5889 5889 5889 5889 5891 5890 5889 5888 5888 5888 5888 5889 5888 5888 5888 5888 5887 5887 5886 5885 5885 5884 5882 5881 5879 5878 5876 5874 5872 5870 5869 5867 5865 5863 5861 5859 5856 5853 5851 5848
5826 5828 5830 5831 5832 5834 5837 5839 5841 5843 5845 5847 5849 5851 5853 5854 5856 5858 5860 5861 5863 5864 5866 5867 5868 5869 5870 5872 5873 5874 5875 5876 5876 5877 5878 5879 5880 5881 5882 5882 5883 5883 5884 5884 5884 5884 5884 5884 5884 5885 5885 5884 5883 5883 5883 5883 5883 5882 5882 5882 5882 5881 5881 5880 5880 5879 5878 5877 5875 5873 5871 5869 5868 5866 5865 5863 5861 5859 5857 5854 5852 5850 5847 5844 5841
5822 5824 5826 5827 5828 5830 5832 5834 5837 5839 5841 5842 5844 5846 5848 5850 5852 5854 5856 5857 5859 5860 5861 5862 5863 5864 5866 5867 5868 5869 5870 5871 5872 5872 5873 5874 5875 5876 5877 5877 5877 5877 5879 5879 5879 5879 5879 5878 5877 5877 5877 5877 5877 5877 5877 5877 5876 5876 5876 5875 5875 5875 5875 5874 5873 5872 5871 5870 5868 5867 5865 5864 5862 5861 5859 5857 5855 5852 5850 5848 5845 5843 5840 5838 5835
5818 5820 5821 5823 5825 5827 5829 5831 5832 5834 5836 5837 5839 5841 5843 5845 5847 5850 5851 5852 5853 5855 5856 5857 5858 5859 5860 5862 5863 5864 5865 5866 5866 5867 5868 5868 5870 5871 5871 5870 5871 5872 5872 5872 5872 5873 5873 5872 5871 5871 5871 5871 5870 5870 5870 5870 5870 5870 5870 5870 5870 5870 5869 5868 5867 5866 5865 5863 5862 5860 5859 5858 5856 5854 5852 5850 5848 5845 5843 5841 5838 5836 5834 5831 5828
5813 5815 5817 5819 5821 5823 5825 5826 5828 5829 5831 5833 5834 5836 5838 5840 5842 5844 5845 5846 5847 5849 5850 5851 5852 5853 5854 5855 5856 5858 5859 5860 5860 5861 5862 5862 5863 5864 5864 5864 5865 5866 5866 5866 5866 5866 5866 5866 5866 5866 5865 5865 5864 5864 5864 5864 5865 5865 5865 5865 5864 5863 5862 5861 5860 5859 5858 5857 5855 5854 5852 5851 5849 5847 5845 5842 5840 5838 5836 5834 5831 5829 5826 5824 5821
5808 5810 5812 5814 5816 5819 5820 5822 5823 5825 5826 5828 5829 5831 5832 5834 5836 5837 5839 5840 5841 5842 5843 5844 5846 5847 5848 5849 5850 5851 5853 5854 5854 5855 5856 5857 5857 5858 5858 5858 5859 5860 5861 5862 5862 5861 5860 5860 5860 5859 5859 5859 5859 5859 5859 5860 5860 5860 5859 5858 5857 5856 5856 5855 5854 5852 5851 5850 5848 5847 5845 5843 5842 5840 5837 5835 5833 5831 5829 5827 5824 5822 5819 5816 5814
5803 5805 5807 5809 5811 5814 5815 5817 5819 5820 5821 5823 5824 5826 5827 5828 5830 5831 5832 5833 5835 5836 5837 5838 5840 5841 5842 5844 5845 5846 5847 5848 5848 5849 5851 5852 5852 5852 5853 5853 5854 5854 5855 5856 5856 5856 5855 5854 5854 5853 5853 5854 5854 5854 5854 5854 5854 5853 5853 5852 5851 5850 5849 5848 5847 5846 5844 5843 5841 5840 5838 5836 5834 5832 5830 5828 5826 5824 5822 5819 5817 5815 5812 5809 5807
5797 5799 5801 5804 5806 5808 5810 5812 5814 5815 5817 5818 5819 5820 5822 5823 5824 5825 5826 5828 5829 5831 5832 5833 5835 5837 5838 5839 5840 5841 5842 5843 5843 5844 5844 5845 5846 5846 5847 5847 5847 5847 5847 5848 5849 5850 5849 5849 5848 5848 5848 5848 5848 5849 5848 5848 5847 5847 5846 5845 5844 5843 5842 5842 5840 5839 5837 5836 5834 5832 5831 5829 5827 5825 5823 5821 5819 5817 5814 5812 5810 5807 5805 5802 5799
5791 5794 5796 5798 5801 5803 5805 5807 5809 5811 5812 5813 5815 5816 5817 5818 5819 5820 5821 5823 5824 5825 5826 5828 5830 5832 5833 5834 5835 5835 5836 5837 5837 5838 5838 5838 5839 5840 5840 5841 5841 5841 5841 5841 5842 5843 5843 5843 5842 5842 5842 5842 5842 5842 5842 5841 5841 5840 5839 5838 5837 5836 5835 5834 5833 5832 5830 5829 5827 5825 5823 5821 5819 5817 5815 5813 5811 5809 5807 5805 5802 5800 5797 5794 5791
5785 5788 5791 5793 5795 5797 5799 5802 5804 5806 5808 5809 5810 5811 5812 5813 5813 5814 5816 5818 5819 5819 5820 5822 5824 5826 5827 5828 5828 5829 5830 5831 5831 5832 5832 5832 5833 5833 5833 5834 5834 5835 5835 5835 5835 5835 5836 5836 5836 5835 5835 5835 5835 5835 5835 5834 5833 5832 5831 5830 5830 5829 5828 5827 5825 5824 5822 5820 5819 5817 5815 5813 5811 5809 5807 5805 5804 5801 5799 5797 5795 5792 5789 5786 5783
5776 5781 5784 5787 5790 5792 5794 5796 5799 5801 5802 5804 5805 5806 5807 5808 5808 5809 5810 5812 5814 5815 5816 5817 5819 5820 5821 5822 5823 5824 5824 5825 5826 5826 5827 5827 5827 5828 5828 5828 5828 5829 5829 5829 5829 5829 5829 5829 5828 5828 5828 5827 5827 5827 5827 5826 5825 5824 5824 5823 5822 5821 5820 5818 5817 5816 5814 5812 5810 5809 5807 5805 5803 5801 5799 5797 5796 5793 5791 5789 5787 5784 5781 5778 5775
5769 5773 5777 5780 5783 5785 5788 5790 5793 5795 5797 5798 5799 5800 5802 5803 5803 5804 5805 5806 5808 5809 5810 5812 5813 5814 5815 5816 5817 5818 5818 5819 5820 5820 5821 5821 5821 5822 5822 5822 5822 5822 5822 5823 5823 5822 5822 5821 5821 5820 5820 5819 5819 5819 5818 5818 5817 5816 5815 5815 5814 5812 5811 5810 5808 5807 5805 5804 5802 5800 5799 5797 5795 5793 5791 5789 5787 5785 5783 5780 5778 5775 5773 5770 5767
5763 5767 5771 5773 5775 5778 5780 5783 5786 5788 5790 5792 5793 5794 5796 5797 5798 5799 5799 5800 5802 5803 5804 5806 5807 5807 5809 5810 5811 5811 5812 5813 5813 5813 5814 5814 5815 5815 5815 5816 5816 5815 5815 5815 5815 5814 5814 5813 5813 5813 5812 5812 5811 5811 5810 5810 5809 5808 5807 5806 5805 5804 5802 5801 5799 5798 5796 5795 5793 5792 5790 5788 5787 5784 5782 5780 5778 5776 5774 5772 5769 5766 5764 5761 5758
5757 5761 5764 5767 5769 5770 5773 5776 5779 5781 5783 5785 5786 5788 5789 5791 5792 5793 5794 5795 5796 5797 5798 5799 5800 5801 5802 5803 5804 5805 5805 5806 5806 5807 5807 5807 5807 5808 5808 5808 5808 5808 5808 5807 5807 5806 5806 5806 5805 5805 5805 5804 5803 5803 5802 5802 5801 5800 5799 5797 5796 5795 5793 5792 5790 5788 5787 5785 5783 5782 5781 5779 5778 5776 5774 5772 5770 5768 5766 5764 5761 5758 5755 5752 5749
5750 5753 5756 5759 5761 5763 5766 5769 5772 5774 5777 5779 5780 5782 5783 5785 5786 5787 5788 5789 5790 5790 5791 5792 5793 5794 5795 5796 5797 5797 5798 5799 5799 5800 5800 5800 5801 5801 5801 5801 5801 5800 5800 5800 5800 5799 5799 5798 5798 5797 5797 5796 5795 5794 5794 5793 5792 5791 5790 5788 5787 5785 5784 5782 5780 5779 5777 5775 5774 5772 5771 5770 5768 5767 5765 5763 5761 5759 5757 5754 5752 5749 5745 5742 5739
5742 5745 5748 5751 5754 5756 5759 5762 5765 5767 5770 5772 5773 5775 5777 5778 5779 5780 5781 5782 5783 5784 5785 5786 5786 5787 5788 5789 5789 5790 5791 5791 5792 5792 5792 5793 5794 5794 5794 5794 5794 5794 5793 5793 5793 5792 5792 5791 5790 5790 5789 5788 5787 5786 5785 5784 5783 5782 5780 5779 5778 5776 5774 5773 5771 5770 5768 5767 5766 5764 5762 5761 5759 5757 5756 5754 5751 5749 5746 5744 5741 5738 5735 5732 5729
5736 5738 5741 5744 5747 5750 5752 5755 5757 5759 5762 5764 5766 5767 5769 5771 5772 5773 5775 5776 5777 5778 5778 5779 5779 5780 5781 5781 5782 5783 5783 5784 5784 5784 5785 5785 5786 5786 5787 5787 5787 5787 5786 5786 5785 5785 5784 5784 5783 5782 5781 5780 5779 5778 5777 5776 5774 5773 5772 5770 5769 5767 5766 5764 5763 5762 5760 5759 5757 5756 5754 5752 5750 5748 5746 5743 5740 5738 5735 5733 5731 5728 5726 5723 5720
5729 5732 5735 5738 5741 5744 5746 5748 5750 5752 5754 5756 5758 5760 5761 5762 5764 5765 5767 5768 5769 5770 5771 5771 5772 5773 5773 5774 5775 5775 5776 5776 5776 5776 5777 5777 5778 5778 5778 5778 5778 5778 5778 5778 5778 5777 5777 5776 5775 5775 5774 5773 5771 5770 5769 5767 5766 5764 5763 5762 5760 5759 5757 5756 5754 5753 5751 5750 5748 5746 5744 5742 5739 5737 5735 5732 5729 5727 5724 5722 5720 5718 5715 5713 5711